TimeEDT,TemperatureF,Dew PointF,Humidity,Sea Level PressureIn,VisibilityMPH,Wind Direction,Wind SpeedMPH,Gust SpeedMPH,PrecipitationIn,Events,Conditions,WindDirDegrees,DateUTC
1:11 AM,50.0,37.4,62,30.04,10.0,SSW,16.1,27.6,0.00,,Overcast,200,2012-10-14 05:11:00
1:48 AM,48.2,39.2,71,30.05,3.0,SW,12.7,19.6,0.03,Rain,Heavy Rain,220,2012-10-14 05:48:00
1:56 AM,48.0,41.0,77,30.07,3.0,SSW,15.0,20.7,0.06,Rain,Rain,210,2012-10-14 05:56:00
2:56 AM,48.9,43.0,80,30.05,10.0,SSW,15.0,26.5,0.02,,Overcast,210,2012-10-14 06:56:00
3:56 AM,50.0,43.0,77,30.04,10.0,SW,10.4,19.6,N/A,,Overcast,220,2012-10-14 07:56:00
4:56 AM,51.1,45.0,80,30.04,10.0,SSW,8.1,17.3,0.00,Rain,Light Rain,210,2012-10-14 08:56:00
5:56 AM,51.1,46.0,83,30.04,10.0,SSW,6.9,18.4,0.00,,Overcast,210,2012-10-14 09:56:00
7:56 AM,55.0,48.0,77,30.04,10.0,SSW,12.7,-,N/A,,Overcast,210,2012-10-14 11:56:00
8:56 AM,57.0,48.9,74,30.06,10.0,SW,9.2,17.3,N/A,,Scattered Clouds,220,2012-10-14 12:56:00
9:56 AM,59.0,51.1,75,30.04,10.0,SW,9.2,24.2,N/A,,Overcast,220,2012-10-14 13:56:00
10:32 AM,60.8,51.8,72,30.04,10.0,SSW,12.7,20.7,N/A,,Mostly Cloudy,210,2012-10-14 14:32:00
10:56 AM,62.1,52.0,70,30.03,10.0,SW,12.7,26.5,N/A,,Mostly Cloudy,220,2012-10-14 14:56:00
11:56 AM,64.9,53.1,65,30.01,10.0,Variable,6.9,23.0,N/A,,Scattered Clouds,0,2012-10-14 15:56:00
12:56 PM,68.0,55.0,63,29.98,10.0,WSW,8.1,20.7,N/A,,Partly Cloudy,250,2012-10-14 16:56:00
1:56 PM,71.1,55.0,57,29.93,10.0,SW,11.5,23.0,N/A,,Clear,220,2012-10-14 17:56:00
2:56 PM,73.0,54.0,51,29.89,10.0,SSW,16.1,35.7,N/A,,Partly Cloudy,210,2012-10-14 18:56:00
3:56 PM,72.0,53.1,51,29.88,10.0,SW,16.1,34.5,N/A,,Scattered Clouds,220,2012-10-14 19:56:00
4:56 PM,71.1,53.1,53,29.84,10.0,South,11.5,28.8,N/A,,Clear,180,2012-10-14 20:56:00
5:56 PM,71.1,52.0,51,29.82,10.0,SSW,16.1,31.1,N/A,,Clear,200,2012-10-14 21:56:00
6:56 PM,69.1,51.1,53,29.82,10.0,South,8.1,18.4,N/A,,Partly Cloudy,190,2012-10-14 22:56:00
7:56 PM,66.9,51.1,57,29.81,10.0,South,17.3,24.2,N/A,,Scattered Clouds,170,2012-10-14 23:56:00
8:56 PM,64.9,51.1,61,29.79,10.0,South,10.4,24.2,N/A,,Clear,170,2012-10-15 00:56:00
9:56 PM,64.0,50.0,60,29.77,10.0,South,15.0,24.2,N/A,,Partly Cloudy,170,2012-10-15 01:56:00
10:56 PM,63.0,48.9,60,29.74,10.0,South,15.0,24.2,N/A,,Overcast,180,2012-10-15 02:56:00
11:56 PM,63.0,50.0,63,29.71,10.0,SSW,16.1,26.5,N/A,,Mostly Cloudy,200,2012-10-15 03:56:00